Orbital Elements at Epoch 2459000.5 (2020-May-31.0) TDB
Reference: JPL 11 (heliocentric ecliptic J2000)
Element | Value | Uncertainty (1-sigma) | Units |
e | .09488075123358454 | 4.6409e-08 | |
a | 2.373524123671313 | 1.7245e-08 | au |
q | 2.148322371746343 | 1.0863e-07 | au |
i | 4.820517519983501 | 5.0539e-06 | deg |
node | 247.5978802083292 | 6.8888e-05 | deg |
peri | 28.47250609775263 | 7.6245e-05 | deg |
M | 216.7824680846202 | 3.3694e-05 | deg |
tp | 2459531.852326494092 (2021-Nov-13.35232649) | 0.0001253 | TDB |
period | 1335.638416467719 3.66 | 1.4556e-05 3.985e-08 | d yr |
n | .2695340262464671 | 2.9374e-09 | deg/d |
Q | 2.598725875596283 | 1.8881e-08 | au |
|
| | Orbit Determination Parameters
Additional Information
|